Location: Brookfield Village
(37.7352°N, 122.1861°W)
Time: 17:08:27
(UTC+00:00)

CZ-3C R/B - Pass Details

Date: 03 August 2024
Orbit: 266 x 32393 km, 20.6° (Epoch: 06 September)

Event Time Altitude Azimuth Distance (km) Brightness Sun altitude
Exits shadow 11:14:47 20° 188° (S) 3,028 4.1 -20.6°
Maximum altitude 11:20:33 32° 141° (SE) 4,073 5.1 -19.8°
Drops below altitude 10° 18:53:27 10° 130° (SE) 24,525 9.7 62.8°
Sets 19:26:10 0° 128° (SE) 19,820 9.0 66.9°
